Weather History for KMSS - August, 2012

Change the Weather History Date:

Friday, August 31, 2012

  Actual Average Record
Temperature  
Mean Temperature 71 °F 64 °F  
Max Temperature 81 °F 75 °F 91 °F (1993)
Min Temperature 61 °F 53 °F 35 °F (1965)
Degree Days  
Heating Degree Days 0 3  
Month to date heating degree days 51  
Since 1 June heating degree days 171  
Since 1 July heating degree days 75  
Cooling Degree Days 6 2  
Month to date cooling degree days 169 102  
Year to date cooling degree days 505 336  
Since 1 June cooling degree days 467 322  
Growing Degree Days 21 (Base 50)    
Moisture  
Dew Point 63 °F    
Average Humidity 81    
Maximum Humidity 100    
Minimum Humidity 61    
Precipitation  
Precipitation 0.13 in 0.11 in 3.61 in (2005)
Month to date precipitation 2.17 3.52  
Year to date precipitation 17.72 22.54  
Sea Level Pressure  
Sea Level Pressure 29.86 in    
Wind  
Wind Speed 10 mph (SW)    
Max Wind Speed 23 mph    
Max Gust Speed 33 mph    
Visibility 7 miles    
Events Fog , Rain    
T = Trace of Precipitation, MM = Missing Value Source: NWS Daily Summary

Daily Weather History Graph

Daily Weather History Graph

Search for Another Location

Airport or City:

Trip Planner

Search our weather history database for the weather conditions in past years. The results will help you decide how hot, cold, wet, or windy it might be!

Date:

Astronomy

Aug. 31, 2012 Rise Set
Actual Time 6:20 AM EDT 7:37 PM EDT
Civil Twilight 5:50 AM EDT 8:07 PM EDT
Nautical Twilight 5:13 AM EDT 8:43 PM EDT
Astronomical Twilight 4:35 AM EDT 9:22 PM EDT
Moon 7:17 PM EDT (8/31) 6:26 AM EDT (8/31)
Length of Visible Light 14h 17m
Length of Day
13h 16m
Full, 100% of the Moon is Illuminated
Aug 31
Full
Sep 8
Last Quarter
Sep 15
New
Sep 22
First Quarter
Sep 29
Full

Hourly Weather History & Observations

Time (EDT) Temp. Heat Index Dew Point Humidity Pressure Visibility Wind Dir Wind Speed Gust Speed Precip Events Conditions
12:53 AM 71.1 °F - 57.9 °F 63% 29.89 in 10.0 mi SW 11.5 mph 20.7 mph N/A   Clear
1:53 AM 71.1 °F - 57.9 °F 63% 29.88 in 10.0 mi SW 15.0 mph - N/A   Clear
2:53 AM 70.0 °F - 57.0 °F 63% 29.86 in 10.0 mi SW 15.0 mph 25.3 mph N/A   Clear
3:53 AM 71.1 °F - 57.9 °F 63% 29.85 in 10.0 mi SW 18.4 mph 31.1 mph N/A   Clear
4:53 AM 70.0 °F - 60.1 °F 71% 29.85 in 10.0 mi SW 17.3 mph 23.0 mph N/A   Clear
5:53 AM 70.0 °F - 59.0 °F 68% 29.85 in 10.0 mi SW 17.3 mph - N/A   Clear
6:53 AM 69.1 °F - 57.9 °F 68% 29.85 in 10.0 mi SW 17.3 mph - N/A   Clear
7:53 AM 70.0 °F - 59.0 °F 68% 29.86 in 10.0 mi SW 13.8 mph 24.2 mph N/A   Clear
8:53 AM 69.1 °F - 61.0 °F 75% 29.84 in 10.0 mi SW 12.7 mph - 0.00 in Rain Light Rain
9:53 AM 68.0 °F - 63.0 °F 84% 29.86 in 1.8 mi SW 17.3 mph 21.9 mph 0.08 in Rain Heavy Rain
10:02 AM 68.0 °F - 64.4 °F 88% 29.87 in 3.0 mi SW 11.5 mph 23.0 mph 0.01 in Rain Light Rain
10:53 AM 68.0 °F - 64.9 °F 90% 29.85 in 7.0 mi SW 10.4 mph - 0.03 in Rain Light Rain
11:53 AM 71.1 °F - 66.0 °F 84% 29.83 in 10.0 mi SW 10.4 mph 19.6 mph 0.01 in Rain Light Rain
12:53 PM 73.9 °F - 64.9 °F 73% 29.81 in 10.0 mi SW 13.8 mph 21.9 mph 0.00 in   Scattered Clouds
1:53 PM 75.0 °F - 66.9 °F 76% 29.82 in 10.0 mi SW 6.9 mph - 0.01 in   Mostly Cloudy
2:53 PM 77.0 °F - 66.0 °F 69% 29.80 in 10.0 mi SW 11.5 mph - N/A   Mostly Cloudy
3:53 PM 78.1 °F - 66.9 °F 68% 29.80 in 10.0 mi WSW 6.9 mph - N/A   Scattered Clouds
4:53 PM 79.0 °F - 66.9 °F 66% 29.79 in 10.0 mi WSW 6.9 mph - N/A   Scattered Clouds
5:53 PM 80.1 °F 82.9 °F 69.1 °F 69% 29.79 in 10.0 mi SW 5.8 mph - N/A   Clear
6:53 PM 78.1 °F - 69.1 °F 74% 29.80 in 10.0 mi SW 3.5 mph - N/A   Partly Cloudy
7:53 PM 75.0 °F - 68.0 °F 79% 29.83 in 10.0 mi North 5.8 mph - N/A   Mostly Cloudy
8:53 PM 73.0 °F - 66.9 °F 81% 29.87 in 10.0 mi North 8.1 mph - N/A   Mostly Cloudy
9:53 PM 66.0 °F - 64.9 °F 96% 29.88 in 8.0 mi Calm Calm - N/A   Mostly Cloudy
10:53 PM 64.9 °F - 64.9 °F 100% 29.89 in 1.2 mi Calm Calm - N/A   Partly Cloudy
10:55 PM 64.4 °F - 64.4 °F 100% 29.89 in 0.5 mi Calm Calm - N/A Fog Fog
11:08 PM 64.4 °F - 64.4 °F 100% 29.89 in 0.5 mi Calm Calm - N/A Fog Fog
11:33 PM 64.4 °F - 64.4 °F 100% 29.90 in 2.0 mi Calm Calm - N/A   Mostly Cloudy
11:37 PM 62.6 °F - 62.6 °F 100% 29.90 in 1.0 mi Calm Calm - N/A   Mostly Cloudy
11:44 PM 62.6 °F - 60.8 °F 94% 29.90 in 0.2 mi SSW 3.5 mph - N/A Fog Fog
11:53 PM 63.0 °F - 62.1 °F 97% 29.91 in 0.5 mi Calm Calm - N/A Fog Fog
11:56 PM 62.6 °F - 62.6 °F 100% 29.90 in 1.5 mi Calm Calm - N/A   Mostly Cloudy
11:59 PM 62.6 °F - 62.6 °F 100% 29.90 in 0.8 mi Calm Calm - N/A   Mostly Cloudy